Sauk Centre, MN

3:52 AM CDT on October 14, 2019 (GMT -0500)
Sauk Centre

Weather History for KD39 - August, 2019

Change the Weather History Date:

Friday, August 2, 2019

  Actual Average (WUND) Record (WUND)
Temperature  
Mean Temperature 70 °F -  
Max Temperature 77 °F - - (-1)
Min Temperature 64 °F - - (-1)
Cooling Degree Days 6    
Growing Degree Days 20 (Base 50)    
Moisture  
Dew Point 66 °F    
Average Humidity 87    
Maximum Humidity 97    
Minimum Humidity 70    
Precipitation  
Precipitation 0.00 in - - ()
Sea Level Pressure  
Sea Level Pressure 30.13 in    
Wind  
Wind Speed 3 mph (SE)    
Max Wind Speed 6 mph    
Max Gust Speed -    
Visibility 10 miles    
Events      
Averages and records for this station are not official NWS values.
T = Trace of Precipitation, MM = Missing Value Source: NWS Daily Summary

Daily Weather History Graph

Daily Weather History Graph

Search for Another Location

Airport or City:

Astronomy

Aug. 02, 2019 Rise Set
Actual Time 6:03 AM CDT 8:47 PM CDT
Civil Twilight 5:29 AM CDT 9:21 PM CDT
Nautical Twilight 4:46 AM CDT 10:04 PM CDT
Astronomical Twilight 3:55 AM CDT 10:54 PM CDT
Moon 7:46 AM CDT (8/2) 10:11 PM CDT (8/2)
Length of Visible Light 15h 51m
Length of Day
14h 43m
Waxing Crescent, 4% of the Moon is Illuminated
Aug 2
Waxing Crescent
Aug 7
First Quarter
Aug 15
Full
Aug 23
Last Quarter
Aug 30
New

Hourly Weather History & Observations

Time (CDT) Temp. Dew Point Humidity Pressure Visibility Wind Dir Wind Speed Gust Speed Precip Events Conditions
12:20 AM 67.5 °F 65.7 °F 94% 30.14 in 10.0 mi SSE 3.5 mph - N/A   Clear
12:37 AM 67.3 °F 66.0 °F 96% 30.14 in 10.0 mi SSE 4.6 mph - N/A   Clear
12:56 AM 67.3 °F 65.8 °F 95% 30.14 in 10.0 mi SSE 3.5 mph - N/A   Clear
1:16 AM 67.3 °F 65.8 °F 95% 30.14 in 10.0 mi SSE 3.5 mph - N/A   Clear
1:35 AM 66.7 °F 65.5 °F 96% 30.14 in 10.0 mi SSE 3.5 mph - N/A   Clear
1:36 AM 66.7 °F 65.5 °F 96% 30.14 in 10.0 mi SSE 3.5 mph - N/A   Clear
1:55 AM 66.4 °F 65.3 °F 96% 30.14 in 10.0 mi South 4.6 mph - N/A   Clear
1:59 AM 66.2 °F 65.1 °F 96% 30.14 in 10.0 mi South 4.6 mph - N/A   Clear
2:16 AM 66.2 °F 65.3 °F 97% 30.14 in 10.0 mi South 3.5 mph - N/A   Clear
2:35 AM 66.4 °F 65.3 °F 96% 30.15 in 10.0 mi South 3.5 mph - N/A   Scattered Clouds
2:36 AM 66.4 °F 65.3 °F 96% 30.15 in 10.0 mi South 3.5 mph - N/A   Mostly Cloudy
2:55 AM 66.6 °F 65.3 °F 96% 30.14 in 10.0 mi SSE 3.5 mph - N/A   Overcast
2:56 AM 66.6 °F 65.3 °F 96% 30.14 in 10.0 mi SSE 4.6 mph - N/A   Overcast
3:18 AM 66.4 °F 65.3 °F 96% 30.14 in 10.0 mi Calm Calm - N/A   Overcast
3:36 AM 65.8 °F 64.6 °F 96% 30.13 in 10.0 mi SSE 5.8 mph - N/A   Scattered Clouds
3:55 AM 65.8 °F 64.6 °F 96% 30.13 in 10.0 mi SSE 4.6 mph - N/A   Mostly Cloudy
4:15 AM 65.3 °F 64.2 °F 96% 30.12 in 10.0 mi SSE 3.5 mph - N/A   Scattered Clouds
4:16 AM 65.3 °F 64.0 °F 96% 30.12 in 10.0 mi SSE 3.5 mph - N/A   Scattered Clouds
4:35 AM 65.3 °F 64.2 °F 96% 30.13 in 10.0 mi Calm Calm - N/A   Mostly Cloudy
4:36 AM 65.5 °F 64.2 °F 96% 30.13 in 10.0 mi Calm Calm - N/A   Mostly Cloudy
4:58 AM 65.3 °F 63.7 °F 94% 30.12 in 10.0 mi South 4.6 mph - N/A   Mostly Cloudy
5:16 AM 65.3 °F 63.7 °F 94% 30.11 in 10.0 mi SSE 5.8 mph - N/A   Mostly Cloudy
5:36 AM 64.4 °F 63.1 °F 96% 30.11 in 10.0 mi SSE 3.5 mph - N/A   Scattered Clouds
5:55 AM 64.2 °F 63.1 °F 96% 30.12 in 10.0 mi SE 3.5 mph - N/A   Clear
5:56 AM 64.2 °F 63.0 °F 96% 30.12 in 10.0 mi SE 3.5 mph - N/A   Clear
6:15 AM 64.4 °F 63.0 °F 95% 30.13 in 10.0 mi Calm Calm - N/A   Scattered Clouds
6:16 AM 64.4 °F 63.0 °F 95% 30.13 in 10.0 mi SE 3.5 mph - N/A   Scattered Clouds
6:38 AM 64.6 °F 63.5 °F 96% 30.14 in 10.0 mi SSE 3.5 mph - N/A   Overcast
6:56 AM 64.8 °F 63.5 °F 96% 30.14 in 10.0 mi Calm Calm - N/A   Overcast
7:16 AM 65.3 °F 63.5 °F 94% 30.13 in 10.0 mi ESE 4.6 mph - N/A   Mostly Cloudy
7:35 AM 65.3 °F 63.5 °F 94% 30.13 in 10.0 mi ESE 3.5 mph - N/A   Scattered Clouds
7:36 AM 65.3 °F 63.5 °F 94% 30.13 in 10.0 mi ESE 3.5 mph - N/A   Scattered Clouds
7:55 AM 65.5 °F 63.9 °F 94% 30.14 in 10.0 mi Calm Calm - N/A   Scattered Clouds
7:59 AM 65.7 °F 64.0 °F 94% 30.14 in 10.0 mi Calm Calm - N/A   Scattered Clouds
8:16 AM 65.8 °F 64.4 °F 95% 30.14 in 10.0 mi Calm Calm - N/A   Mostly Cloudy
8:35 AM 66.7 °F 64.6 °F 93% 30.15 in 10.0 mi Calm Calm - N/A   Overcast
8:36 AM 66.7 °F 64.4 °F 92% 30.15 in 10.0 mi Calm Calm - N/A   Overcast
8:55 AM 67.3 °F 64.6 °F 91% 30.14 in 10.0 mi Calm Calm - N/A   Overcast
9:18 AM 68.4 °F 64.9 °F 89% 30.16 in 10.0 mi WNW 3.5 mph - N/A   Overcast
9:37 AM 68.7 °F 64.9 °F 88% 30.16 in 10.0 mi Calm Calm - N/A   Overcast
9:56 AM 68.9 °F 65.1 °F 88% 30.16 in 10.0 mi Calm Calm - N/A   Mostly Cloudy
10:15 AM 69.3 °F 65.3 °F 87% 30.16 in 10.0 mi SSE 4.6 mph - N/A   Mostly Cloudy
10:16 AM 69.3 °F 65.5 °F 88% 30.16 in 10.0 mi SSE 4.6 mph - N/A   Mostly Cloudy
10:35 AM 70.2 °F 65.8 °F 86% 30.16 in 10.0 mi Calm Calm - N/A   Mostly Cloudy
10:36 AM 70.0 °F 65.5 °F 86% 30.16 in 10.0 mi Calm Calm - N/A   Mostly Cloudy
10:58 AM 70.3 °F 65.7 °F 85% 30.16 in 10.0 mi Calm Calm - N/A   Scattered Clouds
11:16 AM 70.2 °F 65.5 °F 85% 30.16 in 10.0 mi SSE 3.5 mph - N/A   Clear
11:36 AM 70.9 °F 65.7 °F 83% 30.16 in 10.0 mi Calm Calm - N/A   Scattered Clouds
11:55 AM 71.8 °F 65.7 °F 81% 30.15 in 10.0 mi SSE 3.5 mph - N/A   Scattered Clouds
11:56 AM 71.8 °F 65.7 °F 81% 30.15 in 10.0 mi Calm Calm - N/A   Scattered Clouds
12:15 PM 71.8 °F 66.2 °F 83% 30.15 in 10.0 mi SE 4.6 mph - N/A   Clear
12:16 PM 71.8 °F 66.2 °F 83% 30.15 in 10.0 mi SE 4.6 mph - N/A   Clear
12:38 PM 72.9 °F 66.2 °F 80% 30.15 in 10.0 mi ESE 3.5 mph - N/A   Clear
12:55 PM 73.0 °F 66.2 °F 79% 30.15 in 10.0 mi ESE 5.8 mph - N/A   Clear
1:15 PM 73.8 °F 67.5 °F 81% 30.14 in 10.0 mi SSE 4.6 mph - N/A   Clear
1:16 PM 73.9 °F 67.5 °F 80% 30.14 in 10.0 mi SSE 4.6 mph - N/A   Clear
1:35 PM 74.3 °F 67.5 °F 79% 30.14 in 10.0 mi SE 5.8 mph - N/A   Clear
1:36 PM 74.3 °F 67.5 °F 79% 30.14 in 10.0 mi SE 4.6 mph - N/A   Clear
1:59 PM 75.0 °F 67.5 °F 77% 30.14 in 10.0 mi SE 5.8 mph - N/A   Clear
2:16 PM 75.2 °F 66.6 °F 74% 30.14 in 10.0 mi SE 4.6 mph - N/A   Clear
2:36 PM 75.2 °F 66.7 °F 75% 30.14 in 10.0 mi SSE 4.6 mph - N/A   Clear
2:55 PM 75.4 °F 67.1 °F 75% 30.14 in 10.0 mi East 3.5 mph - N/A   Clear
2:56 PM 75.4 °F 67.1 °F 75% 30.14 in 10.0 mi East 3.5 mph - N/A   Clear
3:15 PM 75.4 °F 66.9 °F 75% 30.14 in 10.0 mi ESE 3.5 mph - N/A   Clear
3:20 PM 75.4 °F 66.7 °F 74% 30.14 in 10.0 mi Calm Calm - N/A   Clear
3:37 PM 76.3 °F 67.1 °F 73% 30.14 in 10.0 mi East 4.6 mph - N/A   Clear
3:56 PM 75.9 °F 67.8 °F 76% 30.13 in 10.0 mi ESE 3.5 mph - N/A   Scattered Clouds
4:15 PM 75.9 °F 67.5 °F 75% 30.13 in 10.0 mi Calm Calm - N/A   Mostly Cloudy
4:16 PM 75.7 °F 67.3 °F 75% 30.13 in 10.0 mi Calm Calm - N/A   Mostly Cloudy
4:35 PM 76.1 °F 67.5 °F 74% 30.13 in 10.0 mi South 4.6 mph - N/A   Mostly Cloudy
4:36 PM 76.1 °F 67.5 °F 74% 30.13 in 10.0 mi South 4.6 mph - N/A   Mostly Cloudy
4:58 PM 76.5 °F 67.5 °F 74% 30.12 in 10.0 mi Calm Calm - N/A   Overcast
5:17 PM 76.8 °F 67.1 °F 72% 30.12 in 10.0 mi ESE 3.5 mph - N/A   Mostly Cloudy
5:36 PM 76.8 °F 67.8 °F 74% 30.12 in 10.0 mi East 3.5 mph - N/A   Scattered Clouds
5:55 PM 77.9 °F 67.8 °F 71% 30.12 in 10.0 mi Calm Calm - N/A   Clear
5:56 PM 77.9 °F 67.6 °F 71% 30.12 in 10.0 mi Calm Calm - N/A   Clear
6:18 PM 77.2 °F 67.5 °F 72% 30.11 in 10.0 mi Calm Calm - N/A   Scattered Clouds
6:37 PM 77.2 °F 66.6 °F 70% 30.11 in 10.0 mi East 4.6 mph - N/A   Clear
6:55 PM 75.7 °F 67.8 °F 76% 30.11 in 10.0 mi ESE 4.6 mph - N/A   Clear
7:15 PM 75.2 °F 68.7 °F 80% 30.11 in 10.0 mi Calm Calm - N/A   Clear
7:16 PM 75.2 °F 68.7 °F 80% 30.11 in 10.0 mi Calm Calm - N/A   Clear
7:35 PM 75.2 °F 67.8 °F 78% 30.11 in 10.0 mi Calm Calm - N/A   Clear
7:57 PM 74.3 °F 68.5 °F 82% 30.11 in 10.0 mi Calm Calm - N/A   Scattered Clouds
8:16 PM 73.4 °F 68.2 °F 84% 30.11 in 10.0 mi SE 3.5 mph - N/A   Clear
8:35 PM 73.4 °F 68.0 °F 83% 30.11 in 10.0 mi Calm Calm - N/A   Clear
8:36 PM 73.4 °F 68.0 °F 83% 30.11 in 10.0 mi Calm Calm - N/A   Clear
8:55 PM 72.5 °F 68.0 °F 86% 30.11 in 10.0 mi Calm Calm - N/A   Scattered Clouds
8:56 PM 72.5 °F 68.0 °F 86% 30.11 in 10.0 mi Calm Calm - N/A   Scattered Clouds
9:15 PM 71.8 °F 68.9 °F 91% 30.12 in 10.0 mi Calm Calm - N/A   Overcast
9:19 PM 71.6 °F 68.9 °F 91% 30.12 in 10.0 mi Calm Calm - N/A   Overcast
9:37 PM 71.8 °F 68.9 °F 91% 30.12 in 10.0 mi Calm Calm - N/A   Overcast
9:57 PM 71.6 °F 68.4 °F 89% 30.13 in 10.0 mi Calm Calm - N/A   Overcast
10:15 PM 71.6 °F 68.4 °F 89% 30.12 in 10.0 mi Calm Calm - N/A   Overcast
10:35 PM 70.3 °F 68.4 °F 93% 30.12 in 10.0 mi Calm Calm - N/A   Overcast
10:36 PM 70.2 °F 68.4 °F 94% 30.12 in 10.0 mi Calm Calm - N/A   Overcast
10:55 PM 69.8 °F 68.2 °F 95% 30.12 in 10.0 mi Calm Calm - N/A   Overcast
11:18 PM 69.3 °F 67.3 °F 93% 30.12 in 10.0 mi Calm Calm - N/A   Overcast
11:36 PM 69.8 °F 67.1 °F 91% 30.12 in 10.0 mi Calm Calm - N/A   Overcast
11:55 PM 70.2 °F 67.1 °F 90% 30.12 in 10.0 mi Calm Calm - N/A   Scattered Clouds